Theta_e
334 335 336 346 343 342 342 343 346 346 347 346 347 344 342 343 343 343 343 344 342 340 339 339 340 340 339 341 341 341 340 340 341 341 341 341 341 346 346 346 346 346 346 346 346 348 347 347 347 345 344 345 346 346 346 346 345 345 346 345 346 346 346 345 345 344 344 343 343 344 345 346 346 345 345 345 344 343 341 341 340 337 337 340 343
335 334 335 338 344 343 343 343 346 346 347 346 347 344 344 343 343 341 340 341 342 341 340 339 339 339 339 339 339 340 340 340 340 341 341 341 341 342 344 344 345 345 346 346 346 346 346 347 346 345 346 347 346 345 346 346 346 345 345 345 344 344 344 344 343 343 343 343 344 343 343 344 345 344 344 345 345 342 341 341 340 336 335 340 340
336 337 338 340 346 345 343 344 346 346 347 347 346 344 344 344 342 342 343 342 342 343 342 341 341 341 339 339 339 339 339 339 339 339 340 339 340 341 341 341 343 344 345 344 345 345 346 346 346 346 346 346 346 346 346 345 345 344 344 344 344 343 343 342 342 342 341 342 342 341 341 343 343 343 344 344 344 342 340 340 339 338 335 339 338
338 340 342 343 344 344 343 343 347 346 346 346 345 344 344 343 342 343 343 343 343 342 343 343 341 340 341 340 340 339 340 340 340 339 340 339 340 339 340 341 342 342 342 343 344 344 344 344 345 345 346 345 345 345 345 345 344 344 344 343 343 342 343 342 342 341 340 340 340 338 336 335 339 342 344 343 343 341 339 339 339 339 338 337 338
340 341 341 338 336 342 345 345 346 346 346 346 346 344 343 342 341 341 341 340 339 342 341 340 341 341 340 339 340 340 340 340 340 340 340 340 340 339 339 340 340 341 342 343 344 343 344 344 344 345 345 345 344 344 344 344 343 343 342 342 342 342 342 341 340 339 338 338 337 335 332 334 335 340 342 342 340 337 337 337 338 338 337 336 336
339 340 338 335 334 337 345 345 346 346 346 346 347 344 344 342 341 341 341 341 337 339 342 343 342 342 340 340 339 339 339 340 340 340 340 341 340 340 340 340 340 342 343 343 343 343 343 343 344 345 345 344 344 343 343 343 343 342 342 342 342 341 340 339 338 337 336 335 334 330 329 330 333 336 341 341 340 337 337 336 335 335 335 334 334
339 340 337 334 333 338 343 345 345 347 347 346 346 344 344 344 343 343 342 341 341 343 343 343 343 344 341 340 340 339 339 339 340 339 339 341 341 341 340 340 341 341 342 342 341 342 343 343 343 344 344 343 343 342 342 342 342 342 342 342 341 340 339 339 338 337 335 331 327 327 327 328 330 331 338 339 339 339 337 335 335 333 333 333 333
340 339 335 334 334 339 342 346 346 346 346 346 346 345 345 344 344 342 339 338 339 339 340 342 342 343 344 342 341 342 343 343 342 342 341 341 341 340 339 340 341 341 340 342 342 343 343 343 343 343 343 343 342 342 342 342 342 342 341 341 340 340 339 338 336 335 334 328 327 327 327 327 328 329 336 337 336 334 334 333 333 332 332 332 332
340 339 336 333 333 340 343 345 345 347 346 346 346 346 345 344 343 342 341 340 340 339 338 341 343 343 343 344 344 344 343 343 344 343 342 342 342 341 341 341 340 341 342 343 342 343 342 343 342 343 343 342 342 342 341 342 341 341 341 340 339 338 336 335 333 331 327 325 325 327 327 326 327 328 333 336 336 335 332 332 332 331 330 332 330
339 337 334 331 331 340 341 344 345 346 346 346 346 346 345 344 343 342 341 340 340 339 339 339 340 341 342 344 344 343 344 343 343 343 343 343 342 341 341 340 341 341 342 342 343 343 343 343 343 342 342 341 341 341 341 341 341 340 340 338 337 336 335 333 331 328 323 323 323 324 331 335 326 329 334 336 335 334 331 331 332 330 331 330 330
338 337 334 334 334 340 343 345 346 345 345 346 346 346 346 344 343 342 341 341 340 339 338 339 341 341 341 342 343 344 343 342 341 341 341 341 341 341 342 341 342 342 341 341 342 342 342 342 342 342 341 341 341 341 341 340 340 339 338 337 336 335 333 331 327 321 321 322 323 322 327 333 325 327 334 334 335 333 334 331 332 331 329 329 328
338 338 337 338 341 340 343 344 345 344 345 345 346 346 346 345 343 342 342 342 340 338 337 340 341 341 340 341 343 343 343 342 342 341 341 341 342 341 341 340 339 340 340 340 340 341 341 342 341 341 340 340 340 340 339 339 338 338 337 336 335 333 331 329 322 320 319 319 321 323 321 322 324 330 331 331 331 331 330 329 329 329 327 326 325
338 338 338 339 336 338 341 343 343 344 344 344 346 345 345 344 343 343 343 341 340 339 338 338 338 338 339 340 342 342 342 341 341 340 339 340 339 338 338 339 340 340 340 340 340 341 341 340 341 340 340 340 339 339 339 338 338 336 335 335 333 331 330 327 319 319 319 319 320 319 319 320 323 332 332 331 330 330 328 328 328 328 328 327 326
337 338 338 339 338 342 339 341 341 343 344 344 344 345 345 345 344 344 342 340 339 338 338 338 338 339 341 341 341 340 339 339 339 339 339 339 339 339 339 339 339 339 340 339 339 339 340 340 340 339 339 339 339 338 338 338 337 336 334 333 331 329 326 324 323 317 318 317 320 319 318 322 323 330 331 332 331 330 329 328 328 328 328 327 326
336 338 339 340 337 335 340 338 339 340 342 344 345 345 344 344 344 343 341 341 340 338 338 338 337 340 341 339 339 339 339 339 339 339 339 339 339 339 339 339 338 339 339 339 339 339 339 339 338 338 339 339 338 338 337 336 335 334 333 332 329 327 324 317 317 315 316 319 317 318 318 320 330 330 330 330 330 330 329 328 328 327 326 325 325
338 338 339 339 335 333 334 340 336 337 338 341 342 343 344 344 344 343 341 340 339 338 337 337 336 339 340 340 340 340 339 339 339 339 339 339 338 338 338 338 338 338 338 338 338 338 338 338 337 336 337 337 337 337 337 336 334 333 332 330 328 326 323 319 315 314 314 317 317 317 318 321 329 330 330 330 329 329 328 327 327 327 326 325 324
338 338 338 338 338 337 335 334 332 334 334 336 336 339 342 344 344 343 341 340 338 337 336 337 338 342 341 342 340 340 340 339 340 339 339 339 339 338 338 339 338 338 337 337 337 337 338 337 336 335 335 336 336 336 336 334 333 331 330 328 327 325 322 319 315 312 314 316 316 317 318 320 328 329 328 327 326 326 327 327 327 326 325 324 322
338 337 336 338 339 338 336 333 330 330 329 331 333 335 338 341 341 340 340 340 339 338 339 340 339 339 339 339 339 340 339 339 338 338 337 338 338 337 338 337 337 337 336 337 337 337 337 337 335 335 334 334 334 335 334 333 331 330 328 327 325 324 321 318 313 312 315 319 314 316 319 331 328 328 328 328 328 327 327 326 326 326 324 323 321
337 336 336 337 338 337 337 334 330 329 328 328 327 331 333 335 337 337 338 339 338 337 336 336 335 335 335 335 335 335 334 334 334 334 335 335 333 330 332 336 336 336 336 336 336 337 336 336 334 333 333 333 333 333 332 331 329 328 327 325 323 321 319 316 311 311 313 315 315 316 318 333 328 329 328 327 326 326 326 326 326 326 325 323 323
334 336 336 336 337 337 337 335 333 330 328 327 327 327 330 331 334 335 335 335 334 333 333 331 329 328 328 329 328 328 328 328 328 328 330 331 330 327 331 336 336 336 336 336 335 336 336 335 334 332 331 331 330 330 331 330 328 326 325 323 320 317 313 310 310 311 310 314 316 315 328 331 328 328 328 327 327 327 326 325 325 325 325 323 324
333 335 334 335 336 336 337 336 335 332 331 329 327 327 328 330 330 329 330 329 330 330 328 324 322 322 322 322 323 322 322 323 323 323 323 324 322 325 329 335 336 336 335 334 334 335 335 335 334 332 331 329 325 324 324 327 327 326 324 320 316 312 311 310 310 311 311 311 314 314 331 330 328 328 328 328 327 327 326 325 323 324 325 324 323
331 332 334 335 334 335 336 336 335 335 334 332 331 331 331 328 326 326 325 325 325 324 323 321 325 319 321 321 320 321 320 319 321 326 321 323 323 323 326 331 334 334 334 334 334 334 334 334 333 332 328 325 319 314 313 317 321 323 320 316 310 309 310 309 309 310 310 310 313 321 330 328 326 328 328 328 326 324 325 325 324 323 323 323 322
329 331 332 333 333 333 335 335 336 336 335 334 333 332 332 330 326 324 323 324 324 321 320 320 318 318 316 318 317 317 318 319 318 320 321 320 321 323 326 329 331 331 332 333 332 332 333 333 331 327 324 319 314 312 312 310 310 315 313 310 308 308 309 309 309 308 309 309 309 322 330 327 326 328 327 326 326 325 324 324 323 322 322 322 323
330 331 331 333 334 333 334 334 334 335 335 334 333 333 332 330 326 321 322 321 320 320 317 316 317 317 316 316 317 316 318 319 324 325 323 319 321 321 321 322 324 324 323 324 325 325 328 327 325 322 316 312 310 310 312 310 309 310 309 308 308 308 309 308 308 308 307 310 309 322 326 327 325 326 327 328 326 325 323 324 323 323 322 322 322
331 332 332 333 334 333 333 333 334 334 334 334 333 332 332 330 328 324 321 319 319 318 318 317 316 316 315 316 316 317 319 321 322 321 321 322 322 322 322 321 320 319 318 316 314 312 312 312 313 313 311 312 313 310 312 313 309 310 309 307 308 308 308 307 307 308 307 307 309 320 324 327 325 326 327 326 326 324 324 323 323 323 323 321 322
331 330 331 332 334 334 333 333 333 333 333 333 333 332 332 330 328 326 324 320 320 318 318 318 317 317 316 316 317 318 318 320 320 319 319 320 321 321 319 318 317 316 315 314 312 311 311 310 311 312 312 310 312 311 309 309 312 310 309 307 307 309 307 307 307 309 307 308 309 318 322 326 326 326 329 330 328 325 324 324 324 324 324 323 321
329 329 331 332 334 334 334 334 332 332 333 334 333 332 332 331 330 328 325 324 321 319 319 317 318 317 316 316 318 317 319 320 320 319 319 318 320 319 319 316 316 316 315 314 311 309 310 311 311 311 309 310 310 309 307 308 308 309 308 307 306 307 305 307 307 307 308 307 311 315 320 325 327 327 327 329 330 329 328 326 324 324 325 324 323
329 329 330 331 331 333 334 334 333 332 332 333 332 331 331 331 330 328 327 325 323 322 320 319 317 317 317 317 317 318 319 319 320 319 319 317 319 318 318 317 316 315 315 313 311 308 309 309 311 310 310 308 311 308 307 305 306 305 308 306 305 304 305 306 306 308 308 308 309 312 317 321 325 327 328 327 328 329 329 328 327 330 328 327 327
328 328 329 330 331 332 334 333 333 332 333 333 331 330 330 330 330 328 327 325 325 324 321 319 319 318 317 317 316 318 316 318 319 319 318 319 318 317 317 317 316 314 314 315 312 308 306 308 309 308 306 308 306 310 307 307 305 306 306 308 305 305 305 305 305 306 307 308 309 310 315 318 322 325 328 328 328 328 329 330 330 330 330 329 328
329 329 328 328 330 332 332 332 333 332 333 333 331 330 330 329 329 328 328 326 326 324 319 320 320 319 318 317 317 318 318 317 317 316 317 318 317 315 316 317 316 315 313 315 311 310 307 306 305 307 307 305 305 307 305 306 308 305 304 305 306 306 304 305 306 305 307 307 309 309 313 315 319 323 326 328 328 328 329 329 329 330 330 330 330
329 328 328 328 328 330 331 332 333 332 333 332 332 331 331 329 329 329 328 327 327 324 321 321 319 320 319 318 318 318 318 317 317 315 315 317 316 315 316 316 315 314 313 314 308 309 306 307 307 307 306 305 305 306 307 306 305 305 303 304 306 304 306 305 305 305 306 308 308 307 309 313 316 320 323 326 328 328 328 329 330 330 331 332 331
328 328 328 328 327 329 330 332 332 332 332 333 332 332 331 330 330 329 328 328 327 324 322 321 319 320 319 318 318 318 317 318 317 316 315 314 313 314 314 313 315 312 312 311 309 307 308 307 307 306 306 307 305 306 304 307 306 305 304 304 303 303 305 304 304 306 306 307 307 308 309 310 312 316 318 321 325 327 328 328 329 329 330 330 331
328 328 328 326 325 327 330 331 332 331 331 332 333 333 332 331 330 329 329 327 326 324 322 321 321 320 319 318 318 318 317 318 317 317 315 315 313 312 310 310 312 311 310 308 308 308 308 308 307 305 306 306 306 308 304 304 304 306 305 306 304 306 304 303 306 303 305 306 307 307 308 309 308 311 313 315 319 322 326 328 328 329 329 329 330
325 325 325 325 326 327 329 331 331 331 331 332 333 333 333 332 331 330 328 327 326 324 322 322 321 321 320 319 318 318 318 318 317 315 315 314 313 312 313 311 310 309 308 307 309 307 308 308 307 307 308 307 306 303 304 307 304 302 302 303 303 305 304 305 305 306 304 306 306 305 308 308 309 309 310 313 315 318 322 325 327 328 329 329 329
324 323 324 325 325 327 328 330 330 331 330 331 332 333 333 332 331 330 329 327 325 324 323 322 322 322 320 319 319 318 317 318 317 317 315 314 314 313 311 313 311 308 308 308 310 307 307 310 306 308 305 305 303 303 304 303 303 307 307 304 306 306 303 305 304 305 305 305 305 304 307 307 308 308 309 309 310 313 317 320 324 326 327 328 328
324 324 324 324 325 326 326 329 329 331 331 331 332 333 333 333 332 328 330 328 325 324 323 323 322 322 321 320 319 318 317 317 316 316 315 314 314 313 314 311 309 308 308 307 307 310 308 307 305 306 307 307 304 307 304 306 307 309 309 308 308 306 305 304 306 306 306 304 306 305 306 306 307 307 308 308 309 309 314 316 319 322 323 325 327
324 324 323 323 324 325 325 327 328 329 331 331 332 332 333 332 332 331 331 329 327 325 324 323 322 322 322 321 320 319 318 317 316 315 315 314 313 313 312 311 308 309 307 306 308 309 309 309 305 303 307 309 308 308 310 309 311 311 311 310 310 307 306 307 307 307 304 303 306 306 305 306 306 307 306 307 308 308 310 313 315 317 318 319 321
323 323 324 324 325 325 325 325 327 327 330 331 331 332 332 332 331 331 329 329 328 327 326 323 323 322 322 322 321 320 319 318 317 316 317 317 316 316 314 311 309 309 309 310 312 310 310 311 312 309 310 311 311 311 312 312 310 311 311 310 310 310 309 307 307 304 304 305 306 306 307 306 304 306 306 307 307 306 307 309 312 313 312 314 317
323 323 324 324 324 324 324 323 324 326 327 329 329 330 330 330 331 330 329 329 329 328 327 325 324 323 322 322 321 321 319 319 320 319 320 319 318 317 316 313 313 313 314 313 314 313 313 313 314 314 312 313 313 312 313 312 311 311 311 311 310 310 308 305 304 304 304 304 305 307 303 305 303 305 305 306 304 305 306 307 307 307 309 311 314
323 323 322 323 323 323 323 323 323 325 325 327 327 328 328 327 326 327 328 328 329 327 327 327 324 324 323 322 322 323 322 322 323 322 321 320 319 318 317 316 315 316 315 314 314 314 314 313 313 314 313 310 310 311 312 311 310 309 308 309 309 306 305 306 304 304 303 302 304 302 303 303 300 304 304 304 303 302 304 305 305 306 307 309 312
321 322 321 321 322 323 322 322 324 324 324 325 326 328 327 327 327 327 326 328 328 328 327 327 326 325 323 324 325 325 325 325 324 323 322 319 320 319 318 317 317 316 316 316 316 316 316 315 313 310 309 311 311 309 306 306 306 308 306 304 305 306 305 303 304 303 302 302 300 300 301 301 302 302 303 300 301 301 302 303 304 304 305 304 306
320 321 321 321 321 322 322 323 323 323 324 325 326 326 328 329 327 327 328 328 328 326 327 328 327 326 326 326 326 326 326 326 324 324 323 322 321 319 318 318 317 315 316 317 316 313 314 313 312 310 309 311 310 306 306 309 308 306 306 306 306 304 303 301 300 302 300 300 299 299 300 300 301 302 301 300 300 300 301 302 302 302 303 303 304
320 320 321 321 321 321 322 322 323 323 323 325 325 326 327 327 328 328 329 326 328 330 330 329 328 328 327 326 327 327 327 326 325 324 324 323 323 321 320 319 318 317 315 314 314 314 314 314 312 313 309 307 308 308 310 313 309 303 306 306 299 301 301 297 293 293 302 300 297 298 298 299 300 299 298 298 299 300 301 300 300 301 301 302 303
319 319 320 320 322 321 322 322 322 323 323 324 323 326 326 326 325 323 323 327 325 324 328 329 328 328 327 326 326 327 327 327 326 325 325 324 323 322 321 319 319 317 317 316 314 314 313 312 312 310 311 309 306 307 307 308 310 310 306 305 303 301 303 298 297 307 304 300 298 299 296 297 297 297 297 299 300 300 300 300 299 300 300 301 301
318 319 320 321 322 321 322 323 323 323 324 323 322 324 321 319 320 316 316 318 316 322 325 326 327 325 326 325 325 325 326 327 327 326 325 325 324 323 322 321 319 318 318 317 315 314 314 313 312 310 311 312 307 303 303 307 309 312 310 304 302 300 301 303 307 308 299 301 300 299 297 296 298 298 297 299 298 299 299 299 299 299 300 300 300
316 319 321 321 322 322 322 323 324 324 324 323 323 323 322 323 322 322 320 321 323 320 321 322 325 325 325 326 325 325 326 326 327 326 325 324 324 324 323 322 320 318 317 317 317 315 314 312 312 313 311 311 313 308 306 306 307 308 310 310 309 306 306 306 307 303 302 301 301 296 297 298 296 296 297 298 300 300 300 300 299 300 299 299 299
315 318 319 321 321 322 322 322 323 323 324 323 322 321 322 323 323 324 324 324 323 325 326 325 327 327 327 326 326 325 326 326 326 326 326 325 325 324 323 323 322 321 318 318 316 315 315 314 313 311 311 309 308 309 310 310 306 307 307 308 306 306 306 305 302 302 302 303 301 302 302 299 297 296 296 298 300 299 300 299 299 299 298 299 298
313 315 317 319 320 321 321 321 322 322 323 323 322 322 323 322 322 322 323 323 323 324 323 320 323 324 326 326 326 325 325 326 326 325 326 325 324 324 324 323 321 319 316 315 316 315 313 313 313 313 308 309 311 311 311 310 310 306 305 306 306 306 305 305 305 304 301 299 304 307 303 300 301 303 301 302 302 302 300 299 300 300 299 297 297
311 313 316 317 319 320 320 320 321 321 322 322 321 322 322 323 323 323 322 322 322 320 311 314 319 322 325 325 325 325 325 325 326 325 325 325 322 323 323 322 321 319 314 316 316 314 314 315 311 309 311 311 311 311 309 310 308 309 303 305 304 304 304 303 302 302 300 297 301 301 304 307 306 304 302 302 304 303 303 303 300 299 299 299 298
308 310 311 312 315 316 317 318 320 321 321 321 321 321 322 321 322 322 322 322 319 311 312 314 316 320 324 323 325 324 324 323 324 325 325 325 324 323 323 322 321 320 315 316 317 315 314 314 314 313 312 311 310 310 310 309 308 308 308 306 303 301 301 300 300 299 299 301 299 300 302 301 300 304 305 304 302 304 304 304 303 301 301 299 299
301 306 308 310 312 314 316 317 319 320 320 321 321 321 321 321 322 322 322 321 319 317 315 314 316 317 321 322 323 324 324 323 323 323 324 324 324 321 322 323 322 318 317 317 315 315 316 315 314 311 308 309 309 309 308 308 308 307 305 307 307 306 305 301 301 300 300 297 298 300 301 302 301 300 299 299 301 302 303 302 301 301 301 301 301
Wind_Speed
3 4 2 6 8 8 8 7 11 10 10 10 12 14 12 12 13 14 14 15 14 13 13 14 14 14 16 16 16 16 17 18 17 16 16 14 14 16 16 17 17 18 18 19 19 19 20 20 20 19 20 19 19 20 20 19 20 19 19 20 19 20 20 20 20 19 19 20 20 19 19 18 19 19 19 19 18 17 14 16 14 11 9 13 18
6 3 3 4 8 8 7 6 11 10 11 11 12 14 13 11 12 13 13 13 14 15 13 14 15 15 15 15 16 16 16 16 17 16 16 15 14 15 15 16 16 18 18 18 18 19 19 19 19 19 19 19 19 20 19 19 19 20 20 20 20 20 20 20 20 18 18 18 18 19 20 19 19 18 19 20 19 19 14 16 17 9 7 16 18
5 4 3 3 6 7 8 8 11 10 10 11 12 13 12 11 11 12 13 12 13 13 13 14 15 15 14 15 15 16 16 17 17 17 17 16 15 14 14 14 17 17 17 18 18 18 18 19 19 18 19 18 19 19 19 19 19 19 20 20 20 19 19 19 18 17 17 17 16 17 17 19 18 18 19 19 19 19 16 18 17 16 10 18 15
7 4 3 5 7 7 7 7 13 10 10 10 11 12 12 10 10 12 12 12 11 12 13 13 14 14 14 15 15 15 16 16 17 17 16 16 16 15 14 15 15 16 17 17 17 17 18 18 18 18 18 18 18 18 18 18 18 18 19 19 19 20 19 18 17 17 16 16 16 14 7 6 10 18 18 18 19 19 16 18 18 18 18 16 17
6 4 5 4 4 6 7 7 10 11 10 11 10 13 11 11 11 11 12 10 11 12 12 13 13 14 13 14 15 15 15 16 16 16 17 17 16 15 14 14 16 16 16 16 17 17 18 18 18 18 18 18 18 19 18 18 18 18 18 19 20 19 18 18 17 16 15 15 13 9 6 7 6 15 17 19 18 16 16 17 17 17 17 17 16
6 5 4 3 3 4 5 8 10 11 11 10 10 12 11 11 11 11 11 11 10 11 12 13 13 14 14 13 14 15 15 15 16 16 15 16 16 15 15 15 16 16 16 17 17 17 17 18 18 18 18 18 18 17 17 18 18 18 18 19 18 18 17 17 16 15 14 13 11 7 7 7 5 8 18 17 18 15 17 17 17 16 15 16 15
7 4 4 3 3 4 5 7 10 11 11 10 9 11 11 11 10 10 11 10 11 12 12 12 12 13 14 12 13 14 14 15 16 16 15 15 16 16 15 15 16 16 16 16 17 17 17 17 17 18 18 17 17 17 17 17 17 18 18 18 18 17 17 16 15 14 13 8 6 6 6 7 6 5 17 17 17 17 17 17 16 15 15 15 15
6 4 3 3 3 5 5 6 11 11 10 8 8 11 11 10 10 10 10 9 9 9 11 12 12 12 11 12 14 14 14 15 15 15 15 15 16 16 16 15 16 16 16 17 17 17 17 17 17 17 17 16 16 17 17 17 17 17 18 18 18 17 16 15 15 14 13 7 6 6 6 6 6 5 14 16 17 16 16 16 15 15 15 15 10
6 5 4 3 3 5 4 5 10 11 12 9 7 9 11 10 10 10 10 9 9 10 9 11 12 11 12 12 13 14 14 14 15 15 15 15 15 15 15 15 16 16 16 16 17 16 16 17 17 17 16 16 16 16 16 17 17 17 18 18 17 17 16 15 15 13 8 6 6 6 6 5 4 5 12 15 16 16 15 11 11 13 13 11 15
6 5 3 3 3 5 6 5 10 11 10 10 9 9 11 11 10 10 10 9 9 8 9 10 11 11 11 12 12 13 15 15 15 14 14 14 14 14 15 15 15 15 16 16 16 16 16 16 16 16 16 16 16 16 16 17 17 17 17 17 16 16 15 14 13 9 6 6 6 6 6 7 4 4 11 14 15 14 13 9 7 6 8 13 15
7 5 3 3 4 6 5 6 9 9 10 9 10 9 8 10 10 10 10 10 9 8 8 10 11 11 11 11 13 14 14 14 13 13 14 14 14 14 13 14 14 15 16 16 15 15 15 16 16 16 16 16 16 16 16 16 16 16 16 15 15 14 14 13 10 6 6 6 6 6 6 8 4 4 12 13 14 13 10 10 11 14 14 14 14
8 5 3 4 6 6 5 5 7 10 8 9 9 10 9 9 10 9 10 11 9 8 7 11 11 10 10 11 12 13 14 14 13 12 12 13 13 13 13 13 14 14 14 15 15 15 15 15 15 16 15 15 15 15 15 15 15 15 15 14 14 13 12 11 6 6 6 6 6 5 5 5 4 8 13 12 12 12 12 13 13 13 13 12 10
9 7 5 5 4 5 6 6 6 7 8 7 10 10 10 8 10 10 10 11 10 8 8 8 10 10 10 10 11 12 13 13 13 13 12 13 12 13 13 12 12 13 14 14 15 15 15 15 15 15 15 14 14 14 14 14 14 14 14 13 12 12 11 10 5 6 5 5 5 5 5 5 4 11 12 12 12 12 12 11 12 12 12 12 12
9 7 5 5 4 6 7 6 6 5 7 8 8 10 10 8 9 10 11 10 10 9 8 8 10 10 10 10 9 11 12 12 11 12 12 12 12 13 12 11 11 12 13 14 14 14 14 15 14 14 13 13 13 12 12 12 13 13 12 12 11 10 9 7 6 5 5 5 4 5 4 4 5 11 11 11 11 11 11 12 13 13 13 12 12
9 8 6 5 4 4 7 7 6 5 5 7 7 6 9 10 9 9 11 11 10 9 8 8 9 11 9 7 10 11 12 12 11 11 12 12 12 12 12 12 11 11 12 13 13 13 13 14 14 13 12 12 11 11 11 12 12 11 11 11 10 9 8 5 5 5 5 5 4 5 5 3 9 11 11 11 11 10 10 11 12 12 12 11 11
7 8 7 5 3 3 4 6 7 6 6 7 6 6 6 9 9 8 11 10 9 9 8 8 8 10 8 9 11 11 12 12 11 11 10 10 11 11 12 11 11 10 11 12 12 12 13 13 13 12 12 11 11 11 11 11 11 10 10 9 9 8 7 6 5 4 4 5 4 4 5 4 10 10 10 10 10 9 10 11 10 11 11 10 10
8 7 8 6 4 3 4 4 5 7 6 6 5 7 7 8 7 8 9 9 9 8 8 7 9 11 10 10 11 11 12 11 12 11 11 10 10 10 10 11 11 10 10 11 11 11 12 12 13 12 12 11 11 10 10 10 10 9 9 8 8 7 6 6 5 4 5 4 3 4 5 3 7 9 9 10 10 9 9 8 10 11 10 10 8
7 7 7 6 6 4 3 4 4 4 4 5 6 7 7 8 6 7 8 8 8 7 7 9 10 10 9 8 10 10 11 11 11 10 9 8 9 7 7 9 10 10 9 9 10 9 10 11 12 12 12 11 11 10 10 9 9 9 8 7 7 6 7 6 4 4 4 4 5 3 4 5 8 9 9 9 8 8 8 9 9 10 10 8 7
8 7 7 7 7 4 4 4 3 4 5 4 4 4 7 8 7 7 8 9 8 8 8 8 9 9 9 9 9 10 10 10 9 9 8 8 8 7 6 5 8 9 9 9 9 8 8 9 11 11 12 12 11 10 9 9 8 8 7 6 6 6 6 5 3 3 4 5 4 5 4 7 7 7 7 7 8 8 8 7 8 9 8 7 6
8 8 8 7 7 5 4 4 4 4 4 4 4 3 5 8 8 8 8 8 8 8 8 8 9 9 9 9 9 7 7 7 9 6 8 8 7 6 7 6 7 8 9 8 7 7 7 8 9 10 11 11 11 10 9 7 7 7 6 6 5 5 4 3 3 3 3 3 3 4 5 8 5 6 6 7 7 7 7 7 7 7 8 8 9
7 7 7 6 7 7 6 4 5 5 5 5 4 4 4 7 6 7 8 8 8 8 8 8 8 8 7 7 7 5 4 4 5 4 6 5 7 8 8 7 6 6 7 7 6 6 6 7 8 9 10 9 8 9 9 8 7 6 6 5 5 4 3 3 2 2 3 3 3 4 8 7 7 7 7 7 7 7 7 7 7 7 7 7 7
7 7 8 7 7 7 7 6 5 6 6 5 4 4 3 4 4 4 4 5 6 7 6 4 5 4 6 5 4 3 3 3 4 5 4 4 5 7 7 7 7 7 6 6 6 5 6 6 8 9 9 8 7 5 5 6 8 6 5 5 3 2 2 2 2 2 2 3 3 4 6 7 7 6 6 6 7 7 7 7 6 7 8 6 6
8 7 6 9 6 6 6 8 7 6 6 5 4 5 5 3 3 4 4 5 5 4 4 4 4 4 4 4 3 3 3 3 3 3 4 6 5 6 7 7 6 7 6 6 6 5 5 6 8 8 8 7 5 4 4 4 4 6 5 3 2 1 1 1 1 2 2 2 3 6 6 5 5 6 6 5 6 6 6 6 6 6 7 7 8
7 7 7 6 7 7 7 6 8 8 7 5 4 4 4 3 2 3 4 4 5 4 3 3 4 4 4 4 3 3 3 2 4 6 5 3 4 5 7 7 7 7 7 5 6 7 7 7 7 6 4 3 3 4 3 3 4 3 3 2 1 1 0 0 1 1 2 3 4 6 7 7 7 6 5 7 5 3 3 4 4 5 5 7 6
7 6 6 7 8 8 7 7 6 8 8 6 5 4 4 4 3 3 4 4 3 4 4 4 3 4 3 3 3 3 3 3 2 2 2 2 2 2 2 2 2 2 4 2 2 2 3 2 3 4 3 3 3 3 4 3 2 3 3 2 1 1 1 1 2 1 2 3 3 6 6 7 7 6 6 5 2 1 2 1 4 4 5 3 6
6 8 9 7 8 9 8 6 7 6 7 7 8 5 6 4 4 4 4 3 4 4 3 5 4 4 3 3 4 4 3 3 2 2 2 2 2 2 2 1 1 1 1 1 1 1 2 2 2 2 2 2 2 2 2 1 2 2 2 2 1 0 1 2 2 3 3 3 3 6 6 7 8 8 11 13 6 2 2 4 3 4 7 4 3
7 8 7 6 7 8 8 7 9 8 8 6 6 5 4 4 4 4 5 5 3 4 4 4 4 3 3 4 5 3 3 3 3 2 2 2 2 2 1 1 1 1 1 1 0 1 1 1 1 1 2 2 2 2 3 2 1 2 2 2 2 1 1 2 3 3 3 3 4 6 7 7 8 9 9 10 11 8 8 8 5 6 8 5 5
7 8 8 8 7 9 9 8 8 8 7 7 7 7 7 6 6 5 5 5 5 5 4 4 3 4 3 4 3 4 5 4 4 3 2 2 3 2 2 1 1 1 1 1 0 0 1 1 1 1 1 2 3 3 3 2 2 2 3 2 1 2 3 3 3 4 4 4 4 5 7 7 7 8 10 10 11 13 12 8 9 13 10 11 11
10 9 8 8 9 9 9 11 8 9 7 7 7 6 7 6 5 5 5 6 5 5 5 4 4 4 3 4 4 5 4 4 4 4 3 3 3 2 2 2 1 1 1 1 1 1 1 0 1 0 0 1 2 4 2 1 1 2 2 3 3 2 2 2 3 4 4 4 4 5 7 8 7 8 10 10 11 11 12 14 14 14 14 12 12
11 10 9 9 8 8 11 13 10 9 8 9 7 7 7 7 7 8 6 6 6 5 4 5 4 5 5 4 4 4 5 5 5 4 4 4 3 2 2 3 3 1 1 2 2 1 1 0 0 1 1 1 2 3 2 3 3 3 2 2 4 3 3 3 3 3 4 4 4 5 8 8 7 8 9 10 11 11 12 13 14 14 15 15 14
10 10 9 9 9 9 11 11 9 8 7 9 7 8 7 7 7 7 6 7 6 5 5 5 4 5 5 5 4 5 5 4 5 5 4 4 3 3 4 3 2 3 2 3 1 2 1 1 1 1 1 1 2 0 0 2 2 3 2 2 4 3 3 3 3 3 4 4 4 4 5 8 8 8 9 10 11 12 13 13 15 15 16 17 17
11 11 9 7 8 11 11 11 10 8 8 8 7 8 8 7 6 6 7 6 6 5 5 5 5 5 5 5 5 5 4 4 5 5 5 4 4 4 4 3 4 4 3 3 2 1 1 0 0 0 0 0 2 1 0 0 2 2 1 2 2 2 3 3 3 3 4 5 5 4 5 5 7 8 8 9 11 11 13 14 15 16 17 18 18
8 9 9 8 10 10 11 11 10 9 10 9 8 7 7 6 6 7 6 6 6 6 6 6 6 5 5 5 6 5 5 6 5 6 6 5 5 5 5 4 4 3 3 3 2 1 1 1 1 0 1 1 2 3 3 2 3 3 3 3 3 3 2 2 3 3 5 4 5 5 5 5 5 7 9 8 9 11 12 14 15 16 17 19 19
9 8 8 10 9 7 8 8 10 11 11 9 8 7 7 7 6 6 6 6 6 6 7 6 6 5 6 6 6 6 6 5 5 5 5 5 5 5 5 5 4 3 2 2 3 2 2 1 3 1 2 1 2 3 3 5 3 3 3 3 4 4 3 4 4 5 4 5 4 4 5 5 5 5 5 8 8 9 11 12 14 15 17 18 20
7 8 12 12 9 9 8 8 10 11 11 10 9 8 7 7 7 6 6 7 6 7 6 6 6 6 6 6 6 6 6 6 5 6 6 5 5 5 5 6 4 3 3 3 3 2 2 4 2 2 2 1 1 2 1 3 3 5 5 3 5 5 4 5 4 4 4 4 4 4 5 5 5 5 5 5 6 8 9 11 12 14 15 17 18
11 11 10 8 9 9 9 9 10 11 11 11 9 9 8 7 7 6 6 7 6 7 6 7 7 6 6 6 6 6 6 6 6 5 5 5 5 5 6 4 4 3 3 3 3 4 4 3 2 2 2 4 2 3 1 3 3 5 5 4 5 4 5 4 5 4 4 3 5 4 5 5 5 5 5 5 5 5 8 10 12 13 14 15 17
10 9 10 9 10 10 10 11 12 12 11 11 10 9 8 8 7 7 8 7 7 7 7 6 6 6 6 6 6 7 6 6 6 6 5 5 5 5 5 5 4 5 3 3 3 4 4 3 3 3 3 3 2 4 4 2 4 4 5 5 5 5 6 6 5 5 3 4 5 4 4 5 4 5 4 5 5 4 5 8 10 12 12 13 15
9 10 9 11 11 10 10 10 9 10 10 10 10 9 8 8 7 7 7 8 8 7 6 6 7 7 6 7 7 7 7 6 6 6 6 6 5 5 5 4 4 4 4 4 4 2 3 4 4 3 4 2 3 3 5 3 2 4 5 6 6 6 6 6 6 5 5 6 5 6 6 4 4 5 5 5 4 4 5 6 8 9 11 10 13
8 10 10 9 8 8 8 9 9 9 9 9 9 8 8 7 7 7 8 8 7 7 6 6 7 6 7 7 7 6 6 6 6 6 6 6 5 5 5 4 4 4 4 4 3 3 3 3 4 3 2 3 3 3 4 4 4 4 5 6 6 7 6 5 6 6 6 5 6 6 4 6 4 5 5 5 3 4 5 5 5 5 6 10 11
8 8 10 10 10 8 7 8 9 9 7 7 7 7 7 8 8 6 7 8 7 6 6 7 6 7 7 7 7 7 7 7 7 7 6 6 5 5 6 6 5 4 4 5 5 5 6 5 5 5 3 2 2 3 3 2 3 4 6 6 6 5 7 7 6 5 4 4 5 4 5 4 4 5 5 4 4 4 4 5 5 5 5 7 10
8 9 10 11 11 11 9 12 10 9 8 8 8 9 9 8 7 10 11 8 7 6 7 6 6 6 6 7 7 7 7 7 7 7 7 6 6 5 5 5 6 5 5 6 7 8 7 6 3 3 4 3 2 2 2 2 1 4 4 4 5 6 6 6 6 4 4 5 4 4 4 5 5 5 3 3 5 4 5 5 5 5 5 5 7
11 11 13 13 11 11 13 12 9 9 10 10 10 10 10 10 9 9 6 6 6 7 8 6 7 6 7 8 8 7 8 7 7 7 7 7 6 5 6 6 6 7 7 6 3 2 2 4 4 2 3 4 3 2 3 2 2 3 4 5 4 5 6 3 4 4 4 5 3 3 4 4 6 5 4 5 5 5 5 6 5 5 5 6 6
13 14 13 11 12 13 13 11 10 10 10 10 10 11 9 9 9 7 8 5 5 7 7 7 7 8 8 8 8 8 8 7 7 7 7 7 7 7 6 5 5 6 5 6 5 4 4 5 5 6 3 1 2 2 3 5 4 0 2 2 3 6 4 2 2 2 6 4 1 3 4 4 5 4 4 5 5 5 5 4 5 5 6 6 6
12 10 11 14 12 12 12 12 10 10 10 11 11 10 9 8 7 6 6 8 6 6 7 7 7 8 9 7 7 7 7 8 8 7 7 7 7 7 6 5 5 5 6 5 5 6 5 3 3 3 1 2 2 2 1 3 4 0 4 0 2 1 5 2 3 6 5 1 0 4 1 3 3 5 4 5 6 5 6 5 5 5 5 6 6
13 14 13 13 11 14 13 13 12 12 12 11 12 8 6 5 4 3 3 3 0 4 6 8 8 7 7 7 7 5 6 6 7 9 9 9 8 8 8 7 5 6 6 6 6 8 8 6 6 5 5 5 4 3 1 3 4 4 2 1 3 1 2 3 8 5 1 1 3 3 1 2 4 4 4 6 5 5 5 6 6 5 6 6 6
13 13 13 14 13 12 12 13 12 11 11 10 11 10 9 9 8 8 8 7 9 7 10 11 8 7 8 4 6 7 6 6 6 7 7 7 8 8 8 8 8 7 7 7 6 5 6 8 8 8 7 6 6 2 2 0 2 3 4 3 2 3 5 2 4 5 1 6 2 1 3 3 3 3 4 6 6 6 5 6 5 6 5 5 6
14 11 11 13 13 12 12 14 13 11 10 9 10 10 10 10 12 12 11 11 11 9 7 6 7 5 5 6 6 6 7 7 6 6 7 8 8 7 7 8 9 9 9 8 7 8 7 7 6 5 7 5 3 3 5 4 1 2 5 5 3 1 1 1 3 3 11 2 3 1 2 2 2 1 4 5 6 6 6 5 5 5 5 5 5
14 11 12 11 12 14 13 13 11 11 10 10 11 12 12 11 11 11 11 11 12 10 7 6 5 5 6 6 6 6 7 8 8 7 6 7 7 7 8 8 6 5 6 6 7 7 5 4 6 7 4 5 6 6 5 4 4 2 2 4 4 2 1 2 3 4 3 8 13 5 2 3 6 5 6 7 8 6 6 6 7 7 6 6 5
10 11 12 12 12 12 11 10 12 11 10 11 11 12 12 12 12 11 11 9 8 6 4 5 6 6 7 6 7 6 7 8 8 8 7 7 7 7 6 6 6 6 6 4 4 4 6 5 5 5 6 6 5 6 4 6 5 5 2 0 1 1 1 1 2 3 4 3 8 6 11 9 8 5 6 6 8 8 8 8 6 5 6 6 5
7 7 6 6 6 7 9 10 12 10 10 11 12 12 13 11 11 11 12 10 7 4 5 6 5 6 7 7 7 7 6 6 7 8 8 8 7 7 7 7 7 6 7 8 8 6 5 6 7 6 5 5 4 5 6 3 4 3 2 3 2 2 1 0 1 1 2 5 8 7 7 8 11 8 9 7 8 11 10 9 10 7 6 5 5
5 6 7 8 7 8 9 11 12 10 10 12 12 13 12 12 12 12 13 12 9 8 7 6 6 6 7 7 7 7 6 7 7 7 8 7 8 7 7 7 7 6 6 6 7 7 6 6 6 5 5 6 5 5 3 3 3 3 2 3 3 3 2 1 1 2 2 3 4 6 6 4 8 13 2 1 7 9 9 8 7 8 8 8 8
Wind_Direction
232 160 190 143 130 128 138 146 124 126 120 114 109 104 102 97 94 91 92 97 95 87 86 90 89 87 85 84 88 87 86 87 86 82 82 86 87 80 75 73 75 75 75 74 74 75 76 77 78 78 76 76 76 76 76 75 76 75 73 72 71 67 65 66 64 60 59 61 66 69 70 70 71 72 74 72 70 66 63 62 61 60 57 58 59
169 198 148 136 132 131 137 138 115 126 122 113 107 105 105 98 95 95 94 97 96 94 93 90 89 86 83 84 86 87 87 86 86 86 82 79 86 91 87 82 79 76 73 72 72 74 77 80 81 80 78 77 79 78 78 78 76 75 75 74 73 71 69 67 65 61 61 61 61 63 66 69 71 72 71 71 69 68 65 64 62 58 55 59 56
138 144 137 136 132 133 133 131 110 122 119 114 109 106 105 99 99 103 103 98 98 97 91 86 85 86 89 86 86 86 86 87 87 87 88 86 83 79 83 87 83 78 76 75 75 78 80 79 79 79 78 79 79 79 79 78 77 76 77 76 75 74 72 70 66 63 61 59 57 57 56 63 68 68 69 68 66 62 60 62 59 58 59 59 58
129 127 126 124 128 134 133 122 104 118 122 118 111 111 109 108 111 105 99 101 100 98 95 94 92 84 83 88 88 87 89 90 89 88 88 88 86 87 93 93 88 84 80 78 79 80 81 82 81 80 80 80 80 79 80 79 79 78 77 77 76 76 73 69 65 61 58 56 58 58 51 41 55 68 68 67 65 61 58 58 57 57 57 57 59
124 124 114 117 126 138 143 123 114 123 124 119 118 114 112 109 97 103 105 101 106 106 105 98 96 96 91 88 90 91 90 88 86 87 87 88 91 91 89 94 93 87 85 82 82 85 86 85 83 81 81 81 80 81 81 80 78 79 79 78 77 73 70 67 63 60 57 54 51 49 44 41 48 64 70 69 65 61 60 59 58 57 56 56 57
128 117 113 111 118 128 111 127 125 124 121 129 124 119 117 110 106 102 102 100 93 85 84 89 91 92 95 99 95 92 89 90 90 89 87 88 91 93 92 94 93 88 85 82 82 85 86 85 84 83 81 81 82 81 81 79 78 78 79 77 73 70 68 66 62 59 55 53 48 44 39 36 35 50 62 68 67 61 61 60 59 57 56 57 57
122 119 110 109 110 112 117 133 122 121 128 136 125 122 119 114 111 104 102 109 109 97 97 94 96 96 100 95 87 89 89 87 88 87 86 86 87 87 89 90 87 85 83 84 86 85 85 84 82 81 81 82 81 80 79 78 78 79 79 78 75 73 69 64 59 55 52 49 45 40 38 37 36 42 56 55 57 58 58 56 55 56 58 58 58
114 114 113 114 118 133 153 135 118 122 125 128 130 126 120 115 105 102 103 99 87 91 102 101 95 94 95 97 97 92 87 86 85 85 82 82 80 84 91 92 90 89 87 84 82 83 83 83 83 81 80 80 81 79 79 80 79 79 78 76 73 68 62 56 51 48 47 43 39 39 39 37 40 32 57 60 59 56 53 51 52 55 58 62 54
123 117 114 128 132 134 125 115 123 126 131 132 130 129 123 117 108 106 105 97 87 95 102 97 95 97 97 99 96 93 89 89 88 85 81 81 82 83 90 89 88 87 85 86 85 84 84 84 82 80 79 78 79 80 79 79 79 78 76 71 66 60 54 49 45 43 37 38 33 33 40 36 32 43 57 60 61 62 62 55 48 53 58 57 56
118 115 124 132 131 124 122 136 131 127 132 138 137 137 131 123 115 112 109 101 96 94 98 104 100 95 88 92 98 97 98 89 82 84 85 82 84 86 89 91 87 86 84 84 84 84 82 81 80 80 80 80 80 78 77 77 77 76 74 71 66 61 58 54 49 44 43 38 36 31 35 45 34 49 67 66 65 67 68 69 72 73 61 57 54
124 127 135 132 130 129 136 124 122 127 131 141 147 133 111 123 121 120 118 109 97 90 93 95 92 93 93 91 90 93 87 85 85 84 82 84 85 86 87 93 92 87 82 81 82 83 83 83 81 80 81 82 83 83 82 80 80 78 75 72 67 63 60 56 51 43 40 37 36 28 19 29 38 54 64 66 69 69 67 58 62 58 56 55 52
131 132 139 138 135 132 126 108 126 125 123 136 141 126 129 132 127 124 114 111 106 99 94 96 92 97 98 93 88 86 86 88 91 89 88 87 83 82 87 91 94 90 87 83 80 83 85 84 85 85 84 84 85 85 85 83 82 80 76 72 68 62 57 56 55 48 41 37 33 29 25 24 36 64 63 63 65 66 66 60 56 55 54 53 52
142 139 144 148 131 129 123 117 114 123 127 133 133 138 136 145 131 128 123 113 109 102 93 98 105 108 105 99 98 93 91 91 91 94 96 94 92 88 88 92 94 94 90 88 84 81 83 86 87 87 87 86 86 87 87 87 85 82 78 73 69 65 59 56 52 50 43 35 30 20 19 24 37 63 67 66 63 62 62 62 61 59 57 53 45
148 144 154 149 139 134 127 122 117 114 137 139 134 139 143 145 124 128 121 115 114 111 103 104 109 87 84 99 103 97 96 94 92 95 91 91 95 97 94 94 96 98 95 87 85 84 83 86 89 89 88 88 88 88 89 89 86 83 80 77 72 68 60 54 51 50 44 33 26 21 16 23 52 61 61 64 67 65 58 53 51 51 52 52 47
151 149 150 148 142 135 130 123 114 115 117 115 121 129 143 140 123 125 120 117 116 115 110 105 112 90 87 108 102 100 96 93 95 92 92 91 94 95 95 93 98 101 98 92 86 84 84 85 88 87 86 87 88 88 87 87 85 82 78 75 70 65 67 62 52 46 38 32 20 27 15 1 61 59 59 60 61 60 58 57 57 54 51 49 48
150 148 142 143 136 140 129 124 120 111 105 117 125 130 137 128 131 134 124 120 118 117 119 116 117 90 87 91 96 100 98 93 94 90 92 93 90 89 94 96 99 100 99 96 91 86 81 81 81 81 82 85 86 88 88 87 85 81 76 72 70 65 63 70 59 48 41 31 24 23 13 9 51 55 58 61 60 56 55 52 53 52 49 46 36
150 144 150 150 145 140 137 121 120 105 99 117 117 120 117 123 138 134 123 120 120 119 123 126 100 86 87 87 96 91 93 97 90 79 74 83 87 84 92 97 95 97 102 98 94 88 79 78 77 77 78 81 84 87 89 88 85 81 75 70 70 67 63 69 62 47 41 31 27 11 359 6 49 54 53 51 54 56 54 51 50 47 42 41 31
154 151 157 155 147 146 137 127 122 109 100 103 112 116 115 121 126 114 115 117 118 112 95 89 92 95 92 87 94 98 97 97 90 87 80 71 72 70 81 98 104 101 101 102 98 88 75 76 78 77 76 76 80 85 88 87 84 79 80 77 73 68 72 67 61 41 37 34 20 8 357 16 49 48 46 48 54 54 47 46 48 54 45 45 73
155 160 161 162 158 147 142 138 128 116 112 108 105 101 109 120 115 110 103 104 103 103 103 101 99 98 94 96 94 95 96 94 93 90 83 81 73 64 67 93 105 105 103 104 101 83 72 73 76 76 72 71 71 75 80 83 82 80 80 73 73 73 68 62 57 45 37 30 13 11 351 7 52 45 50 49 43 39 44 44 40 49 44 22 27
165 162 165 170 167 160 152 144 137 129 122 115 104 97 113 122 124 115 112 111 110 110 112 108 105 102 102 98 95 91 88 90 90 86 85 79 73 69 62 76 102 106 102 102 96 80 71 72 74 74 69 65 61 58 62 76 82 79 73 66 68 66 61 52 55 46 30 21 20 5 356 1 29 53 46 35 39 44 34 32 40 41 39 27 17
167 170 168 170 170 167 168 152 141 134 125 120 111 106 113 122 122 121 119 118 120 119 114 110 106 105 103 98 92 91 93 92 87 91 85 81 81 74 70 64 66 87 102 97 88 68 68 72 76 74 68 62 60 50 41 48 59 68 66 66 64 58 46 46 35 41 30 10 13 352 6 7 14 27 30 35 36 31 24 19 19 24 37 32 18
171 175 183 170 173 178 182 165 151 151 135 132 123 117 109 117 126 126 126 125 122 123 122 123 115 112 110 103 103 104 101 99 99 97 94 91 83 84 82 81 78 74 76 80 67 65 62 68 71 66 64 60 57 51 39 35 38 43 46 51 58 58 33 32 34 11 16 355 0 349 12 1 10 21 31 24 26 20 17 17 16 13 17 15 359
175 174 179 179 179 178 181 183 169 157 150 143 138 143 135 122 126 132 133 132 135 130 133 124 127 127 118 115 111 110 107 93 102 107 98 86 78 83 87 89 91 85 78 62 53 45 56 54 60 60 58 51 53 51 46 34 33 27 29 27 37 36 29 23 19 5 340 331 337 338 351 344 357 349 17 18 21 20 11 7 3 1 7 10 341
168 174 175 179 179 180 185 181 181 176 164 150 143 147 150 140 132 141 140 142 139 143 137 138 140 137 131 125 120 113 98 92 92 88 88 82 74 63 64 67 66 59 62 56 38 30 28 42 45 46 46 39 38 41 52 40 32 32 38 22 12 0 23 8 354 337 332 331 323 329 338 350 355 330 331 18 8 23 357 6 350 2 357 357 351
170 160 171 179 182 184 186 187 181 183 175 167 155 161 149 153 157 151 149 152 154 149 148 147 150 145 140 131 129 109 115 116 105 102 95 101 85 79 65 65 53 70 37 53 20 5 17 6 13 25 31 32 33 17 22 16 28 24 18 10 350 348 338 334 315 318 310 314 312 322 327 331 332 333 336 331 308 237 278 333 338 313 322 338 333
160 181 186 180 183 185 186 182 180 189 180 182 181 159 153 164 167 160 157 164 167 167 160 157 157 156 150 138 125 112 108 116 129 129 107 124 130 122 96 80 66 79 59 68 41 19 25 22 27 26 8 28 48 23 17 31 349 29 12 349 353 325 319 311 310 302 290 307 303 313 316 319 313 314 327 322 334 218 283 275 261 292 279 322 312
178 190 181 186 181 186 187 180 188 194 192 177 176 166 167 168 165 165 164 177 174 174 179 172 171 164 156 153 142 141 139 144 143 155 145 150 144 164 163 140 122 94 65 104 37 35 54 54 44 28 352 11 16 3 9 26 68 29 29 5 342 330 316 295 296 290 297 300 295 300 301 304 306 310 313 317 319 314 303 266 259 237 290 311 249
187 189 186 187 189 189 186 184 192 194 189 181 181 185 190 186 186 167 185 178 171 191 186 181 165 171 169 172 160 156 159 161 168 169 171 165 183 184 173 178 204 221 159 116 136 26 63 70 82 27 19 6 353 347 10 11 11 48 8 347 340 324 321 308 294 286 291 292 292 295 295 296 301 298 300 304 313 319 318 298 270 306 296 283 305
196 193 191 187 194 191 186 193 196 194 193 185 186 185 187 191 169 171 192 182 191 194 185 169 176 174 179 174 168 161 160 168 171 184 161 194 188 188 185 190 201 219 208 212 173 184 134 92 106 93 39 353 341 323 353 355 29 18 20 323 316 311 313 309 295 289 287 283 287 281 286 290 291 295 292 294 303 309 314 314 315 311 306 311 302
199 192 189 195 194 191 196 198 196 194 193 190 193 188 189 189 190 193 194 175 198 190 173 184 184 173 186 186 187 177 176 174 181 168 173 196 176 183 198 203 214 186 213 228 190 170 194 118 1 355 1 332 322 308 3 334 341 346 2 316 311 321 304 294 290 275 279 285 272 278 282 282 285 287 287 290 290 295 303 307 307 304 302 303 298
193 198 197 196 190 190 196 202 196 193 193 193 192 193 186 194 190 188 185 188 185 176 189 186 184 191 189 185 190 187 179 180 178 176 184 186 188 188 216 195 217 211 212 242 193 178 170 193 226 257 236 235 250 257 49 326 307 315 314 312 283 317 303 298 292 285 281 272 277 275 279 282 280 279 281 283 284 285 290 295 300 302 304 304 305
200 204 199 192 188 193 195 197 196 193 198 197 191 192 191 197 189 181 194 186 175 187 189 187 196 195 185 187 190 192 184 188 184 183 187 184 191 202 203 192 219 212 202 226 241 200 186 205 149 217 223 314 319 301 288 304 307 275 256 261 262 274 278 280 288 284 284 288 283 277 276 280 282 281 281 282 281 283 283 286 291 296 299 300 301
207 203 199 192 195 192 193 197 194 195 201 201 197 196 194 194 189 193 191 183 185 186 192 195 196 192 186 188 191 191 192 190 192 188 189 189 191 196 205 212 222 203 199 212 217 204 221 289 313 36 355 0 353 326 347 5 331 317 333 314 325 306 282 298 279 280 277 278 278 280 280 278 277 283 281 277 279 281 282 284 286 290 294 296 297
198 197 191 203 198 194 194 192 193 196 200 204 199 198 198 197 196 195 192 185 190 189 197 195 190 188 189 191 190 192 193 196 186 192 186 189 188 197 207 221 223 203 190 176 204 199 219 222 254 356 321 342 302 305 349 322 320 312 310 306 323 286 308 308 289 280 274 272 270 275 272 278 279 279 283 286 283 283 286 287 288 289 291 294 295
195 195 201 201 193 196 191 199 191 197 196 203 201 202 197 196 196 197 194 191 192 195 195 191 191 193 185 195 192 191 196 193 191 185 188 187 189 201 207 223 198 179 180 196 196 197 185 218 191 222 270 280 285 273 272 286 300 307 297 299 289 292 295 277 286 279 272 268 265 260 262 266 271 275 278 283 290 291 290 290 292 293 293 292 293
203 203 206 193 200 200 195 198 192 198 197 200 202 202 200 199 199 200 197 194 193 197 196 196 195 189 188 193 194 193 193 194 190 185 183 188 191 199 213 208 189 171 190 175 171 199 205 217 213 190 253 284 321 301 20 316 315 301 300 293 282 290 286 281 279 281 271 287 278 277 272 266 268 270 271 272 276 285 286 289 290 290 291 292 293
206 205 201 198 205 202 199 202 198 199 198 199 202 202 200 202 201 201 202 195 198 201 199 195 193 190 192 196 192 192 194 193 192 188 185 187 193 201 213 197 171 175 174 170 187 207 188 208 225 202 189 258 291 288 301 273 295 296 302 304 295 293 289 281 282 280 309 292 288 284 282 275 267 266 273 272 276 273 282 278 281 285 286 289 293
209 209 205 202 206 201 202 204 205 200 200 199 200 200 201 201 204 204 203 204 204 203 199 190 196 195 191 198 192 191 193 192 189 187 193 194 193 197 200 175 164 163 169 169 210 174 183 183 232 191 183 186 249 269 290 285 254 285 298 292 291 290 280 284 284 288 283 287 286 282 275 285 291 281 275 272 273 281 282 283 281 284 286 285 289
211 209 208 209 209 208 203 207 206 201 202 200 197 200 199 205 205 203 206 211 210 207 197 198 198 195 196 196 193 191 192 191 190 185 192 190 187 192 187 182 172 175 173 185 195 186 181 195 217 224 191 234 209 217 250 272 294 298 281 278 280 275 283 282 276 275 271 261 275 284 311 289 286 277 273 277 285 286 284 284 293 296 295 294 294
214 211 211 209 210 209 205 208 210 202 197 195 188 197 199 203 203 204 213 209 208 204 203 204 195 203 199 193 193 193 191 193 191 186 191 186 189 188 188 168 174 175 188 184 195 197 201 205 218 220 218 228 220 227 230 255 274 269 272 273 268 283 277 265 270 265 278 278 272 289 283 289 285 283 285 300 304 295 293 295 294 289 289 291 292
213 212 212 213 209 207 200 214 206 197 191 190 195 196 200 205 208 212 215 206 207 202 207 204 203 205 199 199 198 200 194 193 191 182 190 185 190 185 180 176 165 175 198 214 205 198 204 199 197 192 205 229 260 218 207 172 261 304 275 282 303 261 265 274 272 299 286 270 263 269 275 294 280 284 297 341 321 312 301 294 289 291 290 292 295
215 209 212 211 209 208 210 214 201 199 199 197 196 200 204 206 202 214 209 205 205 204 211 201 206 203 204 205 203 199 197 194 187 187 188 183 183 181 188 187 176 178 195 209 233 250 169 177 158 194 203 184 231 197 182 141 320 248 329 319 285 309 281 292 315 297 287 270 265 260 275 274 280 289 340 339 314 302 292 285 295 297 295 298 297
213 211 212 207 209 211 214 210 205 198 203 201 197 205 203 204 201 205 200 205 211 210 212 205 198 205 207 208 204 200 194 195 188 186 188 189 187 180 192 193 191 172 177 194 201 210 197 198 192 203 213 274 247 242 187 173 244 69 258 314 318 346 330 357 333 305 281 263 269 261 265 266 289 319 305 313 289 289 288 296 301 298 301 302 301
213 211 208 212 213 215 211 208 207 202 203 204 204 206 202 198 204 193 193 198 200 201 206 209 206 204 210 203 206 202 199 193 184 186 195 193 189 187 177 188 202 191 187 188 188 210 201 212 200 228 186 206 226 281 199 182 196 37 325 110 275 17 319 327 306 290 285 321 165 264 272 292 297 292 310 293 291 300 297 302 294 294 293 294 293
209 209 205 207 210 212 207 205 207 206 206 202 200 195 181 182 173 133 136 171 92 188 204 214 209 203 202 199 201 187 195 206 198 190 190 195 193 192 178 182 197 201 200 199 189 201 203 205 199 192 186 207 243 233 296 180 194 198 184 358 345 6 232 290 332 299 3 103 269 243 286 258 271 284 296 293 299 292 288 297 292 290 287 288 290
214 213 205 209 209 208 204 207 210 209 207 202 192 186 192 187 180 190 190 192 210 197 202 205 197 197 201 176 180 191 196 201 198 202 197 193 193 192 185 176 192 194 196 204 205 190 199 202 201 194 202 207 226 191 254 245 197 190 210 196 180 245 316 323 22 309 283 223 205 184 227 238 255 284 308 297 297 297 288 287 285 287 287 285 288
218 207 207 212 209 208 203 205 207 207 203 198 187 188 196 197 197 202 204 206 216 222 215 211 206 196 171 181 182 180 192 198 205 200 200 199 197 194 195 192 194 199 201 200 197 195 201 207 187 189 209 190 164 220 232 237 89 228 209 223 247 227 148 352 273 323 319 351 140 157 292 258 283 262 272 271 283 294 293 283 291 289 290 287 287
210 198 208 207 205 207 202 203 205 205 201 194 189 192 197 198 201 207 209 212 212 219 200 199 183 169 178 184 175 182 189 197 201 201 201 200 202 202 200 198 197 206 178 192 200 208 200 196 184 192 179 177 179 194 225 200 204 249 186 194 209 213 171 188 206 245 257 300 304 296 202 343 342 337 324 322 315 302 302 308 307 312 306 300 288
206 200 205 204 206 206 203 201 204 202 200 192 192 195 197 197 201 204 212 219 213 212 173 170 174 173 181 176 180 182 186 194 198 199 200 199 201 206 206 208 208 199 178 198 222 209 198 189 180 177 191 192 188 199 190 216 190 215 119 287 151 155 108 174 184 162 216 257 280 286 312 332 328 328 335 320 305 312 319 314 299 284 296 300 300
209 206 210 201 204 199 203 201 208 202 198 195 194 196 197 195 201 204 209 211 199 183 163 173 176 175 185 181 180 179 184 192 200 202 199 199 197 202 202 199 198 192 193 202 196 194 198 198 194 196 190 185 193 185 204 197 182 183 165 153 139 80 73 43 132 173 258 216 261 291 306 313 319 318 327 317 328 322 321 323 323 327 321 311 301
198 195 201 196 191 194 200 204 209 199 195 198 193 198 196 197 203 202 204 207 195 180 176 180 172 178 188 185 184 189 185 191 190 200 201 198 198 196 201 206 207 202 202 197 206 196 197 193 186 175 183 194 179 175 186 190 163 143 146 163 186 179 183 165 222 215 208 270 293 284 298 296 304 311 264 314 317 303 303 308 313 318 324 325 323